Content
SEND FEEDBACK

Daily
Averages
Monthly
Summary
United States of America

PUT IN BAY, OHIO


Home > North America > United States > Ohio
Elevation: 561 feet     Latitude: 41 39N     Longitude: 082 48W

WEATHER
 
SELECT A DAY
Number of Records: 124,918;   Date Range: 12/10/00 - 10/24/14
 
SHARE

PRINT THIS DATA

[ ← Previous Day ]
WEATHER ALMANAC - JULY 3, 2013
[ Next Day → ]
[ °C ]   °F
Weather ElementAverageHighLow
Temperature70.5 °F79.7 °F (3:00 pm)62.2 °F (6:00 am)
Dewpoint65.6 °F69.6 °F (11:00 am)60.8 °F (4:00 am)
Humidity85 %96 % (7:00 am)64 % (3:00 pm)
Barometer30.05 in30.08 in (10:00 am)30.01 in (4:00 am)
Wind Speed4.2 mph6.9 mph (11:00 am)
Weather ElementAverage
Wind DirectionESE (125 °)

Weather ElementTotal
Precipitation---
Cooling Degree Days6 (Base 65)
Growing Degree Days21 (Base 50)
Averaged from 22 records on July 3, 2013
WEATHER CONDITIONS BREAKOUT
WIND DIRECTION BREAKOUT
WEATHER BY HOUR - JULY 3, 2013
[ °C ]   °F
Local TimeTemperatureDewpointHumidityBarometerVisibilityWind DirectionWind SpeedGust SpeedPrecipitationEventsConditions
1:00 AM65.5 °F63.1 °F92 %30.05 inNE (40°)2.3 mph
2:00 AM64.0 °F63.0 °F94 %30.04 inNE (50°)1.2 mph
2:00 AM64.4 °F62.6 °F94 %30.04 inNE (50°)1.2 mph
3:00 AM64.8 °F62.8 °F93 %30.03 inNNE (20°)3.5 mph
4:00 AM62.6 °F60.8 °F94 %30.01 inNE (50°)3.5 mph
5:00 AM62.4 °F61.0 °F95 %30.02 inENE (70°)2.3 mph
6:00 AM62.2 °F60.8 °F95 %30.03 inENE (60°)2.3 mph
7:00 AM63.1 °F61.9 °F96 %30.05 inENE (70°)3.5 mph
8:00 AM67.0 °F65.0 °F91 %30.06 inEast (80°)1.2 mph
8:00 AM66.7 °F64.9 °F94 %30.06 inEast (80°)1.2 mph
9:00 AM70.9 °F67.6 °F89 %30.07 inSE (140°)3.5 mph
10:00 AM72.5 °F68.5 °F87 %30.08 inSSE (150°)5.8 mph
11:00 AM74.1 °F69.6 °F86 %30.08 inSSE (160°)6.9 mph
12:00 PM76.6 °F69.4 °F78 %30.08 inSSW (210°)5.8 mph
1:00 PM76.8 °F68.9 °F76 %30.08 inSSW (210°)6.9 mph
2:00 PM77.7 °F67.5 °F71 %30.07 inSW (220°)6.9 mph
3:00 PM79.7 °F66.6 °F64 %30.06 inWSW (240°)5.8 mph
4:00 PM79.2 °F65.8 °F64 %30.06 inSSW (200°)6.9 mph
5:00 PM79.7 °F66.6 °F64 %30.05 inSouth (190°)6.9 mph
9:00 PM74.1 °F68.2 °F82 %30.04 inSE (140°)3.5 mph
10:00 PM73.8 °F68.7 °F84 %30.06 inSSE (160°)5.8 mph
11:00 PM73.0 °F68.9 °F87 %30.06 inSSE (160°)4.6 mph
Hourly data recorded from CXHA, located miles away from Put In Bay, Ohio







STORIES FROM OUR PARTNERS